Location: Bühlhof
(48.7849°N, 8.6361°E)
Time: 05:01:36
(UTC+00:00)

ATLAS 5 CENTAUR R/B - Visible Passes

Search period start: 21 April 2026 00:00
Search period end: 01 May 2026 00:00
Orbit: 362 x 1069 km, 63.3° (Epoch: 20 April)

Date Brightness Start Highest point End Pass type
(mag) Time Alt. Az. Time Alt. Az. Time Alt. Az.
21 Apr 3.4 20:18:38 10° NNW 20:21:33 20° NNE 20:24:12 13° ENE visible
21 Apr 1.9 21:59:54 10° NW 22:03:20 63° NW 22:03:20 63° NW visible
22 Apr 3.8 19:25:23 10° N 19:27:21 14° NNE 19:29:30 10° NE visible
22 Apr 2.2 21:06:18 10° NNW 21:10:11 47° NE 21:11:04 41° ENE visible
22 Apr 3.5 22:48:23 10° WNW 22:50:11 21° W 22:50:11 21° W visible
23 Apr 2.9 20:12:47 10° NNW 20:16:12 27° NE 20:18:48 17° E visible
23 Apr 2.0 21:54:20 10° NW 21:57:56 55° W 21:57:56 55° W visible
24 Apr 3.4 19:19:22 10° NNW 19:22:02 18° NNE 19:25:03 10° ENE visible
24 Apr 1.6 21:00:32 10° NW 21:04:36 73° NE 21:05:40 52° ESE visible
24 Apr 3.8 22:43:14 10° WNW 22:44:47 16° W 22:44:47 16° W visible
25 Apr 2.4 20:06:52 10° NNW 20:10:38 39° NE 20:13:24 20° E visible
25 Apr 2.6 21:48:45 10° WNW 21:52:31 37° WSW 21:52:31 37° WSW visible
26 Apr 3.1 19:13:16 10° NNW 19:16:30 24° NE 19:20:15 10° E visible
26 Apr 1.6 20:54:41 10° NW 20:58:51 72° SW 21:00:15 45° SSE visible
26 Apr 4.2 22:38:40 10° W 22:39:23 11° W 22:39:23 11° W visible
27 Apr 1.8 20:00:51 10° NW 20:04:52 60° NE 20:08:01 21° ESE visible
27 Apr 3.3 21:43:14 10° WNW 21:46:49 24° WSW 21:47:08 24° SW visible
28 Apr 2.6 19:07:07 10° NNW 19:10:44 33° NE 19:15:06 10° ESE visible
28 Apr 2.3 20:48:50 10° NW 20:52:54 45° SW 20:54:54 30° S visible
29 Apr 1.6 19:54:45 10° NW 19:58:53 87° SW 20:02:40 18° SE visible
29 Apr 3.9 21:38:01 10° W 21:40:41 15° WSW 21:41:47 14° SW visible
30 Apr 3.1 20:42:59 10° WNW 20:46:47 29° WSW 20:49:35 18° SSW visible
